Tracking 20041 objects as of 23-Nov-2019
Live streaming from Space Station
objects crossing your sky now

RADUGA 1-4

Track RADUGA 1-4 now!
RADUGA 1-4 is classified as:


NORAD ID: 25642
Int'l Code: 1999-010A
Perigee: 35,783.8 km
Apogee: 35,823.5 km
Inclination: 14.8 °
Period: 1,436.6 minutes
Semi major axis: 42174 km
RCS: 12.5893 m2 (large)
Launch date: February 28, 1999
Source: Commonwealth of Independent States (former USSR) (CIS)
Launch site: TYURATAM MISSILE AND SPACE COMPLEX (TTMTR)

Military communication.
aabbcc
Your satellite tracking list
Your tracking list is empty




NASA's NSSDC Master Catalog

Two Line Element Set (TLE):
1 25642U 99010A   19325.81393028 +.00000118 +00000-0 +00000-0 0  9992
2 25642 014.7744 022.2029 0004712 270.1913 100.9605 01.00236406075894
Source of the keplerian elements: AFSPC